This demonstration page uses our WeatherBlox Daily Observations layout. Learn more.

Hourly Observations for May 24, 2015

Temp ( °F °C ) Dew Point ( °F °C ) Humidity (%) Winds ( mph kmh ) Pressure ( in mb ) Visibility ( mi km ) Precip ( " mm )
12:15 am 00:15 Cloudy 57 14 56 13.2 95 95 ESE 9 15 29.94 1014 10 16.0934 0 0
12:35 am 00:35 Cloudy with Light Rain 57 14 56 13.2 95 95 ESE 9 15 29.94 1014 5 8.0467 0 0
12:55 am 00:55 Cloudy with Light Drizzle 57 14 56 13.1 94 94 ESE 10 17 29.94 1014 3 4.82802 0.01 0.254
1:15 am 01:15 Cloudy with Mist and Fog 57 14 56 13.3 96 96 ESE 10 17 29.91 1013 3 4.82802 0 0
1:35 am 01:35 Cloudy with Mist and Fog 57 14 56 13.3 96 96 ESE 12 19 29.91 1013 5 8.0467 0 0
1:55 am 01:55 Cloudy 57 14 56 13.4 96 96 ESE 12 19 29.91 1013 7 11.26538 0 0
2:15 am 02:15 Cloudy with Mist and Fog 57 14 56 13.3 96 96 ESE 15 24 29.88 1012 4 6.43736 0 0
2:35 am 02:35 Cloudy with Mist and Fog 57 14 56 13.2 95 95 ESE 14 22 29.88 1012 1 1.60934 0 0
2:55 am 02:55 Cloudy with Mist and Fog 57 13.9 56 13.2 96 96 ESE 9 15 29.88 1012 0.75 1.207005 0 0
3:15 am 03:15 Cloudy with Fog 57 13.9 56 13.3 96 96 ESE 9 15 29.88 1012 0.5 0.80467 0 0
3:35 am 03:35 Cloudy with Fog 57 14 56 13.3 96 96 ESE 7 11 29.85 1011 0.5 0.80467 0 0
3:55 am 03:55 Cloudy with Fog 57 13.9 56 13.3 96 96 SE 5 7 29.88 1012 0.5 0.80467 0 0
4:15 am 04:15 Cloudy with Fog 57 14 56 13.3 96 96 SE 6 9 29.88 1012 0.5 0.80467 0 0
4:35 am 04:35 Cloudy with Fog 57 14 56 13.3 96 96 SE 6 9 29.88 1012 0.5 0.80467 0 0
4:55 am 04:55 Cloudy with Rain 57 14 56 13.3 96 96 SSE 5 7 29.85 1011 0.75 1.207005 0 0
5:15 am 05:15 Cloudy with Rain 57 14 56 13.3 96 96 SSE 5 7 29.88 1012 1.75 2.816345 0.01 0.254
5:35 am 05:35 Cloudy with Mist and Fog 57 14 56 13.3 96 96 SSW 6 9 29.88 1012 2.5 4.02335 0.01 0.254
5:55 am 05:55 Cloudy with Mist and Fog 57 13.9 56 13.2 96 96 SSW 3 6 29.88 1012 5 8.0467 0.01 0.254
6:15 am 06:15 Cloudy 57 13.8 56 13.2 96 96 Calm 29.88 1012 7 11.26538 0 0
6:35 am 06:35 Cloudy 57 13.8 56 13.2 96 96 Calm 29.88 1012 7 11.26538 0 0
6:55 am 06:55 Cloudy with Mist and Fog 57 13.8 56 13.2 96 96 Calm 29.88 1012 4 6.43736 0 0
7:15 am 07:15 Cloudy with Mist and Fog 57 14 56 13.3 96 96 Calm 29.88 1012 4 6.43736 0 0
7:35 am 07:35 Cloudy with Mist and Fog 57 14 56 13.5 97 97 Calm 29.88 1012 5 8.0467 0 0
7:55 am 07:55 Cloudy 57 14 56 13.4 96 96 Calm 29.85 1011 10 16.0934 0 0
8:15 am 08:15 Cloudy 57 14.1 56 13.5 96 96 S 3 6 29.85 1011 10 16.0934 0 0
8:35 am 08:35 Cloudy 58 14.4 56 13.6 95 95 SSW 3 6 29.85 1011 10 16.0934 0 0
8:55 am 08:55 Cloudy 58 14.4 56 13.3 93 93 SSW 3 6 29.85 1011 10 16.0934 0 0
9:15 am 09:15 Cloudy 58 14.5 56 13.3 93 93 SSW 3 6 29.8 1009 10 16.0934 0 0
9:35 am 09:35 Cloudy 59 14.8 56 13.3 91 91 SW 3 6 29.8 1009 10 16.0934 0 0
9:55 am 09:55 Cloudy 59 15.1 56 13.3 89 89 Calm 29.8 1009 10 16.0934 0 0
10:15 am 10:15 Cloudy 60 15.6 56 13.2 86 86 Calm 29.8 1009 10 16.0934 0 0
10:35 am 10:35 Mostly Cloudy 61 15.9 56 13.2 84 84 Calm 29.83 1010 10 16.0934 0 0
10:55 am 10:55 Mostly Cloudy 62 16.9 57 13.7 82 82 SSW 3 6 29.83 1010 10 16.0934 0 0
11:15 am 11:15 Cloudy 62 16.7 57 13.8 83 83 SW 5 7 29.8 1009 10 16.0934 0 0
11:35 am 11:35 Cloudy 63 17.1 57 13.9 82 82 SW 6 9 29.8 1009 10 16.0934 0 0
11:55 am 11:55 Cloudy 62 16.5 56 13.6 83 83 SW 8 13 29.8 1009 10 16.0934 0 0
12:15 pm 12:15 Cloudy 61 16.3 57 13.9 86 86 SW 8 13 29.83 1010 10 16.0934 0 0
12:35 pm 12:35 Cloudy 61 16.2 57 13.7 85 85 SW 9 15 29.83 1010 10 16.0934 0 0
12:55 pm 12:55 Cloudy 61 16.1 57 13.8 86 86 SW 9 15 29.83 1010 10 16.0934 0 0
1:15 pm 13:15 Cloudy 61 16.1 57 13.7 86 86 SSW 8 13 29.83 1010 10 16.0934 0 0
1:35 pm 13:35 Cloudy 61 16.3 57 13.7 85 85 SSW 7 11 29.83 1010 10 16.0934 0 0
1:55 pm 13:55 Cloudy 62 16.4 57 13.7 84 84 S 5 7 29.8 1009 10 16.0934 0 0
2:15 pm 14:15 Cloudy 63 17 57 14 83 83 SSW 6 9 29.8 1009 10 16.0934 0 0
2:35 pm 14:35 Cloudy 63 17.3 57 14.1 82 82 SSW 6 9 29.8 1009 10 16.0934 0 0
2:55 pm 14:55 Cloudy 64 17.5 57 14 80 80 SW 6 9 29.74 1007 10 16.0934 0 0
3:15 pm 15:15 Cloudy 63 17.2 57 13.7 80 80 SSW 5 7 29.77 1008 10 16.0934 0 0
3:35 pm 15:35 Cloudy 64 17.9 57 13.8 77 77 Calm 29.74 1007 10 16.0934 0 0
3:55 pm 15:55 Cloudy 64 18 56 13.5 75 75 Calm 29.74 1007 10 16.0934 0 0
4:15 pm 16:15 Cloudy 64 18 56 13.6 76 76 S 5 7 29.74 1007 10 16.0934 0 0
4:35 pm 16:35 Cloudy 64 17.7 56 13.5 77 77 SSE 5 7 29.74 1007 10 16.0934 0 0
4:55 pm 16:55 Cloudy 64 17.9 56 13.5 76 76 SSE 3 6 29.74 1007 10 16.0934 0 0
5:15 pm 17:15 Cloudy 65 18.1 57 13.9 77 77 SE 5 7 29.74 1007 10 16.0934 0 0
5:35 pm 17:35 Cloudy with Nearby Thunderstorms 64 18 57 14 78 78 SSE 8 13 29.71 1006 10 16.0934 0 0
5:55 pm 17:55 Cloudy 64 18 57 14 78 78 SSE 10 17 29.71 1006 10 16.0934 0 0
6:15 pm 18:15 Cloudy 64 18 57 13.7 76 76 SE 7 11 29.71 1006 10 16.0934 0 0
6:35 pm 18:35 Mostly Cloudy 64 18 57 13.9 77 77 ESE 7 11 29.71 1006 10 16.0934 0 0
6:55 pm 18:55 Partly Cloudy 64 18 57 13.9 77 77 ESE 10 17 29.71 1006 10 16.0934 0 0
7:15 pm 19:15 Sunny 64 18 57 14.1 78 78 SE 9 15 29.71 1006 10 16.0934 0 0
7:35 pm 19:35 Partly Cloudy 64 18 58 14.2 79 79 SE 8 13 29.71 1006 10 16.0934 0 0
7:55 pm 19:55 Cloudy 64 17.8 58 14.4 81 81 SE 5 7 29.71 1006 10 16.0934 0 0
8:15 pm 20:15 Cloudy 64 17.5 58 14.4 82 82 ESE 6 9 29.71 1006 10 16.0934 0 0
8:35 pm 20:35 Mostly Cloudy 63 17.3 58 14.5 84 84 SE 8 13 29.74 1007 10 16.0934 0 0
8:55 pm 20:55 Cloudy 63 17 58 14.5 85 85 SE 6 9 29.74 1007 10 16.0934 0 0
9:15 pm 21:15 Mostly Cloudy 62 16.6 58 14.5 88 88 ESE 6 9 29.74 1007 10 16.0934 0 0
9:35 pm 21:35 Partly Cloudy 60 15.7 57 14 90 90 ESE 7 11 29.74 1007 10 16.0934 0 0
9:55 pm 21:55 Clear 60 15.5 57 14.1 91 91 ESE 8 13 29.74 1007 10 16.0934 0 0
10:15 pm 22:15 Partly Cloudy 59 15.2 57 13.9 92 92 SE 3 6 29.74 1007 10 16.0934 0 0
10:35 pm 22:35 Mostly Cloudy 59 15.2 57 13.9 92 92 ESE 3 6 29.77 1008 10 16.0934 0 0
10:55 pm 22:55 Mostly Cloudy 58 14.6 56 13.5 93 93 SE 3 6 29.77 1008 10 16.0934 0 0
11:15 pm 23:15 Mostly Cloudy 58 14.5 56 13.5 94 94 SE 3 6 29.77 1008 10 16.0934 0 0
11:35 pm 23:35 Mostly Cloudy 59 14.9 57 13.9 94 94 SE 7 11 29.74 1007 10 16.0934 0 0
11:55 pm 23:55 Mostly Cloudy 59 15.2 58 14.2 94 94 S 3 6 29.74 1007 10 16.0934 0 0

Powered by AerisWeather